Flag for Russia Weather past 2 weeks in Chelyabinsk, Russia

Now
14 °F

Sunny.


Feels Like: 0 °F
Forecast: 3 / 9 °F
Wind: 13 mph from West

Location: Chelyabinsk-Balandino

Current Time: Dec 27, 2014 at 12:21:37 PM

Latest Report: Dec 27, 2014 at 12:00 PM


Visibility: 10 mi

Pressure: 29.86 "Hg

Humidity: 57%

Dew point: 1 °F

Location of ChelyabinskLocation

Historic Weather in Chelyabinsk — Graph

°F

Chelyabinsk temperature yesterday

Maximum temperature yesterday: 23 °F (at 12:00 AM)
Minimum temperature yesterday: 14 °F (at 6:30 PM)
Average temperature yesterday: 18 °F

Past Weeks' High & Low Weather Summary

 TemperatureHumidityPressure
High36 °F (Dec 23, 5:00 AM)100% (Dec 15, 10:00 PM)30.48 "Hg (Dec 15, 10:00 PM)
Low1 °F (Dec 17, 4:30 AM)47% (Dec 13, 10:00 PM)29.27 "Hg (Dec 25, 1:00 PM)
Average22 °F82%29.96 "Hg
* Reported Dec 12 11:00 AM — Dec 27 11:00 AM, Chelyabinsk, Weather by CustomWeather, © 2014

Note: Actual official high and low records may vary slightly from our data, if they occured in-between our weather recording intervals... More about our weather records

Advertising

Chelyabinsk weather history for previous 24 hours

 ConditionsComfort  
Time TempWeatherWind HumidityBarometerVisibility
11:00 AM
Dec 27
12 °FClear.13 mph57%29.86 "Hg10 mi
10:30 AM12 °FClear.13 mph57%29.83 "Hg10 mi
10:00 AM10 °FClear.13 mph61%29.83 "Hg10 mi
9:30 AM10 °FClear.15 mph61%29.80 "Hg10 mi
8:30 AM10 °FClear.17 mph61%29.77 "Hg10 mi
8:00 AM10 °FClear.15 mph61%29.77 "Hg10 mi
7:30 AM10 °FClear.13 mph61%29.74 "Hg10 mi
7:00 AM10 °FPassing clouds.15 mph67%29.74 "HgN/A
6:30 AM10 °FPassing clouds.13 mph61%29.71 "HgN/A
6:00 AM10 °FPassing clouds.15 mph61%29.71 "HgN/A
5:30 AM10 °FPassing clouds.17 mph67%29.68 "HgN/A
5:00 AM10 °FClear.13 mph67%29.68 "Hg10 mi
4:30 AM10 °FPassing clouds.17 mph67%29.68 "HgN/A
4:00 AM12 °FPartly cloudy.24 mph67%29.65 "HgN/A
3:30 AM14 °FPartly cloudy.20 mph67%29.62 "HgN/A
3:00 AM16 °FPartly cloudy.10 mph73%29.59 "HgN/A
2:30 AM14 °FSnow flurries. Partly cloudy.13 mph73%29.59 "HgN/A
1:30 AM16 °FClear.13 mph67%29.56 "Hg10 mi
1:00 AM16 °FClear.10 mph73%29.53 "Hg10 mi
12:30 AM14 °FClear.10 mph79%29.53 "Hg10 mi
12:00 AM18 °FPartly cloudy.13 mph73%29.50 "HgN/A
11:30 PM
Dec 26
18 °FPartly cloudy.13 mph73%29.50 "HgN/A
11:00 PM18 °FPartly cloudy.15 mph79%29.47 "HgN/A
10:30 PM16 °FPartly cloudy.13 mph86%29.47 "HgN/A
10:00 PM16 °FPartly cloudy.13 mph86%29.45 "HgN/A
9:30 PM16 °FPartly cloudy.10 mph86%29.42 "HgN/A
9:00 PM16 °FSnow flurries. Mostly cloudy.8 mph93%29.42 "Hg4 mi
8:30 PM16 °FSnow flurries. Mostly cloudy.8 mph93%29.39 "Hg2 mi
8:00 PM16 °FSnow flurries. Mostly cloudy.8 mph93%29.39 "Hg3 mi
7:30 PM16 °FSnow flurries. Mostly cloudy.8 mph86%29.36 "Hg2 mi
7:00 PM16 °FSnow flurries. Mostly cloudy.6 mph86%29.36 "Hg2 mi
6:30 PM14 °FSnow flurries. Mostly cloudy.6 mph92%29.36 "Hg3 mi
6:00 PM16 °FBroken clouds.6 mph86%29.33 "HgN/A
5:30 PM16 °FBroken clouds.3 mph86%29.33 "HgN/A
5:00 PM16 °FBroken clouds.3 mph86%29.30 "HgN/A
4:30 PM16 °FBroken clouds.3 mph86%29.30 "HgN/A
4:00 PM18 °FBroken clouds.3 mph86%29.30 "HgN/A
3:30 PM18 °FBroken clouds.3 mph79%29.27 "HgN/A
3:00 PM19 °FBroken clouds.3 mph79%29.27 "HgN/A
2:30 PM21 °FBroken clouds.6 mph80%29.27 "HgN/A
2:00 PM21 °FBroken clouds.8 mph80%29.27 "HgN/A
1:30 PM19 °FBroken clouds.6 mph93%29.27 "HgN/A
1:00 PM19 °FBroken clouds.6 mph86%29.27 "HgN/A
12:30 PM19 °FSnow flurries. Broken clouds.6 mph86%29.27 "Hg4 mi
12:00 PM19 °FSnow flurries. Partly sunny.6 mph86%29.30 "Hg2 mi
Weather by CustomWeather, © 2014

See weather overviewHow to use our weather pages